Location: Dumpton Point
(51.3500°N, 1.4433°E)
Time: 11:52:38
(UTC+00:00)

BREEZE M DEB (TANK) - Pass Details

Date: 09 April 2020
Orbit: 304 x 11878 km, 49.5° (Epoch: 27 May)

Event Time Altitude Azimuth Distance (km) Brightness Sun altitude
Rises 19:18:38 0° 187° (S) 2,265 5.3 -6.4°
Reaches altitude 10° 19:20:38 10° 162° (SSE) 1,734 4.5 -6.7°
Maximum altitude 19:23:07 17° 119° (ESE) 1,812 4.3 -7.0°
Drops below altitude 10° 19:27:24 10° 80° (E) 3,278 5.7 -7.6°
Sets 19:33:37 0° 66° (ENE) 5,846 7.1 -8.5°
